CAPE
nan nan nan nan nan nan nan nan nan nan nan nan nan nan nan nan nan nan nan nan nan nan nan nan nan nan nan 0 0 0 0 nan nan nan nan nan 3 3 4 4 4 3 2 1 1 0 0 0 0 0 nan nan nan nan nan nan nan nan 0 0 0 1 3 6 6 9 10 11 10 10 10 10 7 7 4 5 7 7 7 6 6 9 11 12 12 12
nan nan nan nan nan nan nan nan nan nan nan nan nan nan nan nan nan nan nan nan nan nan nan nan nan nan nan nan nan nan 0 nan nan nan nan nan 2 2 4 4 4 3 2 1 1 0 0 0 0 0 nan nan nan nan nan nan nan nan nan nan nan nan 0 1 1 2 4 4 3 3 3 4 3 3 2 3 7 7 8 9 9 9 12 14 14 13
nan nan nan nan nan nan nan nan nan nan nan nan nan nan nan nan nan nan nan nan nan nan nan nan nan nan nan nan nan nan 0 0 nan nan nan 1 4 4 5 5 5 5 3 2 2 2 1 0 0 nan nan nan nan nan nan nan nan nan nan nan nan nan nan nan nan nan nan nan nan nan nan nan nan nan 0 2 7 7 9 12 12 10 13 15 15 17
nan nan nan nan nan nan nan nan nan nan nan nan nan nan nan nan nan nan nan nan nan nan nan nan nan nan nan nan nan nan 1 1 0 0 1 3 5 5 5 6 6 5 4 3 3 2 1 0 0 nan nan nan nan nan nan nan nan nan nan nan nan nan nan nan nan nan nan nan nan nan nan nan nan nan nan 2 6 6 9 10 10 10 14 16 16 19
nan nan nan nan nan nan nan nan nan nan nan nan nan nan nan nan nan nan nan nan nan nan nan nan nan nan nan nan nan nan 1 2 1 1 2 4 5 5 5 6 6 5 4 2 2 2 1 0 0 nan nan nan nan nan nan nan nan nan nan nan nan nan nan nan nan nan nan nan nan nan nan nan nan nan nan 0 2 2 5 9 9 10 11 15 15 19
nan nan nan nan nan nan nan nan nan nan nan nan nan nan nan nan nan nan nan nan nan nan nan nan nan nan nan nan nan nan nan 1 1 1 3 4 4 4 4 5 5 5 5 3 3 2 1 0 0 nan nan nan nan nan nan nan nan nan nan nan nan nan nan nan nan nan nan nan nan nan nan nan nan nan nan nan 0 0 3 6 6 8 10 13 13 17
nan nan nan nan nan nan nan nan nan nan nan nan nan nan nan nan nan nan nan nan nan nan nan nan nan nan nan nan nan nan nan nan nan nan nan 2 3 3 3 4 4 4 3 3 3 1 0 nan nan nan nan nan nan nan nan nan nan nan nan nan nan nan nan nan nan nan nan nan nan nan nan nan nan nan nan nan nan nan 1 3 3 7 9 12 12 14
nan nan nan nan nan nan 0 0 0 0 nan nan nan nan nan nan nan nan nan nan nan nan nan nan nan nan nan nan nan nan nan nan nan nan nan nan nan nan nan nan nan nan nan nan nan nan nan nan nan nan nan nan nan nan nan nan nan nan nan nan nan nan nan nan nan nan nan nan nan nan nan nan nan nan nan nan nan nan nan nan nan 2 5 8 8 11
nan nan nan nan nan nan nan 0 nan nan nan nan nan nan nan nan nan nan nan nan nan nan nan nan nan nan nan nan nan nan nan nan nan nan nan nan nan nan nan nan nan nan nan nan nan nan nan nan nan nan nan nan nan nan nan nan nan nan nan nan nan nan nan nan nan nan nan nan nan nan nan nan nan nan nan nan nan nan nan nan nan nan 1 4 4 7
nan nan nan nan nan nan nan nan nan nan nan nan nan nan nan nan nan nan nan nan nan nan nan nan nan nan nan nan nan nan nan nan nan nan nan nan nan nan nan nan nan nan nan nan nan nan nan nan nan nan nan nan nan nan nan nan nan nan nan nan nan nan nan nan nan nan nan nan 0 0 0 nan nan nan nan nan nan nan nan nan nan nan nan 0 0 3
nan nan nan nan nan nan nan nan nan nan nan nan nan nan nan nan nan nan nan nan nan nan nan nan nan nan nan nan nan nan nan nan nan nan nan nan nan nan nan nan nan nan nan nan nan nan nan nan nan nan nan nan nan nan nan nan nan nan nan nan nan nan nan nan nan nan nan 0 1 1 1 0 nan nan nan nan nan nan nan nan nan nan nan nan nan 0
nan nan nan nan nan nan nan nan nan nan nan nan nan nan nan nan nan nan nan nan nan nan nan nan nan nan nan nan nan nan nan nan nan nan nan nan nan nan nan nan nan nan nan nan nan nan nan nan nan nan nan nan nan nan nan nan nan nan nan nan nan nan nan nan nan nan nan 0 1 1 2 2 1 1 0 nan nan nan nan nan nan nan nan nan nan nan
nan nan nan nan nan nan nan nan nan nan nan nan nan nan nan nan nan nan nan nan nan nan nan nan nan nan nan nan nan nan nan nan nan nan nan nan nan nan nan nan nan nan nan nan nan nan nan nan nan nan nan nan nan nan nan nan nan nan nan nan nan nan nan nan nan 0 0 0 1 1 1 2 2 2 2 0 0 0 nan nan nan nan nan nan nan nan
nan nan nan nan nan nan nan nan nan nan nan nan nan nan nan nan nan nan nan nan nan nan nan nan nan nan nan nan nan nan nan nan nan nan nan nan nan nan nan nan nan nan nan nan nan nan nan nan nan nan nan nan nan nan nan nan nan nan nan nan nan nan 0 1 1 1 1 1 1 1 1 2 2 2 2 2 1 1 0 nan nan nan nan nan nan nan
nan nan nan nan nan nan nan nan nan nan nan nan nan nan nan nan nan nan nan nan nan nan nan nan nan nan nan nan nan nan nan nan nan nan nan nan nan nan nan nan nan nan nan nan nan nan nan nan nan nan nan nan nan nan nan nan nan nan nan 0 0 1 1 2 2 2 2 1 1 1 1 2 2 2 3 2 1 1 1 0 0 0 nan 0 0 1
nan nan nan nan nan nan nan nan nan nan nan nan nan nan nan nan nan nan nan nan nan nan nan nan nan nan nan nan nan nan nan nan nan nan nan nan nan nan nan nan nan nan nan nan nan nan nan nan nan nan nan nan nan nan nan nan nan nan 0 1 1 1 2 2 2 3 2 2 1 1 1 1 2 2 3 2 2 2 2 1 1 0 1 1 1 3
nan nan nan nan nan nan nan nan nan nan nan nan nan nan nan nan nan nan nan nan nan nan nan nan nan nan nan nan nan nan nan nan nan nan nan nan nan nan nan nan nan nan nan nan nan nan nan nan nan nan nan nan nan nan nan nan nan nan 0 1 1 1 2 2 2 2 1 1 1 1 1 1 2 2 3 3 3 3 3 2 2 2 1 1 1 5
nan nan nan nan nan nan nan nan nan nan nan nan nan nan nan nan nan nan nan nan nan nan nan nan nan nan nan nan nan nan nan nan nan nan nan nan nan nan nan nan nan nan nan nan nan nan nan nan nan nan nan nan nan nan nan nan nan nan 0 0 0 1 2 1 1 1 1 1 1 1 1 1 1 1 2 3 4 4 4 4 4 4 3 2 2 4
nan nan nan nan nan nan nan nan nan nan nan nan nan nan nan nan nan nan nan nan nan nan nan nan nan nan nan nan nan nan nan nan nan nan nan nan nan nan nan nan nan nan nan nan nan nan nan nan nan nan nan nan nan nan nan nan nan nan nan 0 0 0 1 0 0 nan 0 1 2 2 2 1 1 1 2 3 4 4 5 7 7 8 6 6 6 6
nan nan nan nan nan nan nan nan nan nan nan nan nan nan nan nan nan nan nan nan nan nan nan nan nan nan nan nan nan nan nan nan nan nan nan nan nan nan nan nan nan nan nan nan nan nan nan nan nan nan nan nan nan nan nan nan nan nan nan nan nan 0 0 nan nan nan 0 1 2 2 2 2 2 2 2 3 4 4 6 8 8 9 9 8 8 7
nan nan nan nan nan nan nan nan nan nan nan nan nan nan nan nan nan nan nan nan nan nan nan nan nan nan nan nan nan nan nan nan nan nan nan nan nan nan nan nan nan nan nan nan nan nan nan nan nan nan nan nan nan nan nan nan nan nan nan nan nan nan nan nan nan nan 0 1 2 2 2 1 2 2 3 3 5 5 6 8 8 12 14 14 14 11
nan nan nan nan nan nan nan nan nan nan nan nan nan nan nan nan nan nan nan nan nan nan nan nan nan nan nan nan nan nan nan nan nan nan nan nan nan nan nan nan nan nan nan nan nan nan nan nan nan nan nan nan nan nan nan nan nan nan nan nan nan nan nan nan nan nan 0 1 2 2 1 1 1 1 2 2 3 3 6 8 8 13 18 18 18 15
nan nan nan nan nan nan nan nan nan nan nan nan nan nan nan nan nan nan nan nan nan nan nan nan nan nan nan nan nan nan nan nan nan nan nan nan nan nan nan nan nan nan nan nan nan nan nan nan nan nan nan nan nan nan nan nan nan nan nan nan nan nan nan nan nan nan 0 1 1 1 1 1 1 1 2 2 3 3 3 5 5 8 11 15 15 20
nan nan nan nan nan nan nan nan nan nan nan nan nan nan nan nan nan nan nan nan nan nan nan nan nan nan nan nan nan nan nan nan nan nan nan nan nan nan nan nan nan nan nan nan nan nan nan nan nan nan nan nan nan nan nan nan nan nan nan nan nan nan nan nan nan 0 0 1 2 2 2 2 2 2 3 3 3 3 3 3 3 4 6 8 8 13
nan nan nan nan nan nan nan nan nan nan nan nan nan nan nan nan nan nan nan nan nan nan nan nan nan nan nan nan nan nan nan nan nan nan nan nan nan nan nan nan nan nan nan nan nan nan nan nan nan nan nan nan nan nan nan nan nan nan nan nan nan nan nan 0 0 0 1 1 2 2 2 3 3 3 3 3 3 3 3 3 3 4 4 5 5 6
nan nan nan nan nan nan nan nan nan nan nan nan nan nan nan nan nan nan nan nan nan nan nan nan nan nan nan nan nan nan nan nan nan nan nan nan nan nan nan nan nan nan nan nan nan nan nan nan nan nan nan nan nan nan nan nan nan nan nan nan nan nan nan nan nan 0 0 1 1 1 2 2 3 3 3 3 3 3 3 3 3 3 4 4 4 5
nan nan nan nan nan nan nan nan nan nan nan nan nan nan nan nan nan nan nan nan nan nan nan nan nan nan nan nan nan nan nan nan nan nan nan nan nan nan nan nan nan nan nan nan nan nan nan nan nan nan nan nan nan nan nan nan nan nan nan nan nan nan nan nan nan nan nan nan 0 0 1 1 2 2 2 2 3 3 3 3 3 3 3 3 3 4
nan nan nan nan nan nan nan nan nan nan nan nan nan nan nan nan nan nan nan nan nan nan nan nan nan nan nan nan nan nan nan nan nan nan nan nan nan nan nan nan nan nan nan nan nan nan nan nan nan nan nan nan nan nan nan nan nan nan nan nan nan nan nan nan nan nan nan nan 0 0 0 1 1 1 2 1 1 1 2 2 2 3 3 2 2 1
0 nan nan nan nan nan nan nan nan nan nan nan nan nan nan nan nan nan nan nan nan nan nan nan nan nan nan nan nan nan nan nan nan nan nan nan nan nan nan nan nan nan nan nan nan nan nan nan nan nan nan nan nan nan nan nan nan nan nan nan nan nan nan nan nan nan nan 0 0 0 1 1 1 1 1 1 1 1 1 1 1 3 3 0 0 nan
nan nan nan nan nan nan nan nan 1 1 2 nan nan nan nan nan nan nan nan nan nan nan nan nan nan nan nan nan nan nan nan nan nan nan nan nan nan nan nan nan nan nan nan nan nan nan nan nan nan nan nan nan nan nan nan nan nan nan nan nan nan nan nan nan nan nan nan nan nan nan 0 1 1 1 1 0 0 0 0 1 1 nan 0 nan nan nan
nan nan nan nan nan nan nan nan nan nan 2 11 3 3 nan nan nan nan nan nan nan nan nan nan nan nan nan nan nan nan nan nan nan nan nan nan nan nan nan nan nan nan nan nan nan nan nan nan nan nan nan nan nan nan nan nan nan nan nan nan nan nan nan nan nan nan nan nan nan nan nan nan nan nan nan nan nan nan nan 0 0 0 nan nan nan nan
nan nan nan nan nan nan nan nan nan nan nan nan nan nan nan nan nan nan nan nan nan nan nan nan nan nan nan nan nan nan nan nan nan nan nan nan nan nan nan nan nan nan nan nan nan nan nan nan nan nan nan nan nan nan nan nan nan nan nan nan nan nan nan nan nan nan nan nan nan nan nan nan nan nan nan nan nan nan nan 0 0 1 nan nan nan nan
nan nan nan nan nan nan nan nan nan nan nan nan nan nan nan nan nan nan nan nan nan nan nan nan nan nan nan nan nan nan nan nan nan nan nan nan nan nan nan nan nan nan nan nan nan nan nan nan nan nan nan nan nan nan nan nan nan nan nan nan nan nan nan nan nan nan nan nan nan nan nan nan nan nan nan nan nan nan 0 1 1 3 2 nan nan nan
nan nan nan nan nan nan nan nan nan nan nan nan nan nan nan nan nan nan nan nan nan nan nan nan nan nan nan nan nan nan nan nan nan nan 0 nan nan nan nan nan nan nan nan nan nan nan nan nan nan nan nan nan nan nan nan nan nan nan nan nan nan nan nan nan nan nan nan nan nan nan nan nan nan nan nan nan nan nan 1 2 2 5 4 0 0 nan
nan nan nan nan nan nan nan nan nan nan nan nan nan nan nan nan nan nan nan nan nan nan nan nan nan nan nan nan nan nan nan nan nan nan 0 nan nan nan nan nan nan nan nan nan nan nan nan nan nan nan nan nan nan nan nan nan nan nan nan nan nan nan nan nan nan nan nan nan nan nan nan nan nan nan nan nan nan nan 3 3 3 4 4 7 7 2
nan nan nan nan nan nan nan nan nan nan nan nan nan nan nan nan nan nan nan nan nan nan nan nan nan nan nan nan nan nan nan nan nan nan nan nan nan nan nan nan nan nan nan nan nan nan nan nan nan nan nan nan nan nan nan nan nan nan nan nan nan nan nan nan nan nan nan nan nan nan nan nan nan nan nan nan nan nan nan 0 0 1 1 3 3 3
nan nan nan nan nan nan nan nan nan nan nan nan nan nan nan nan nan nan nan nan nan nan nan nan nan nan nan nan nan nan nan nan nan nan nan nan nan nan nan nan nan nan nan nan nan nan nan nan nan nan nan nan nan nan nan nan nan nan nan nan nan nan nan nan nan nan nan nan nan nan nan nan nan nan nan nan nan nan nan nan nan nan nan nan nan nan
nan nan nan nan nan nan nan nan nan nan nan nan nan nan nan nan nan nan nan nan nan nan nan nan nan nan nan nan nan nan nan nan nan nan nan nan nan nan nan nan nan nan nan nan nan nan nan nan nan nan nan nan nan nan nan nan nan nan nan nan nan nan nan nan nan nan nan nan nan nan nan nan nan nan nan nan nan nan nan nan nan nan nan nan nan nan
nan nan nan nan nan nan nan nan nan nan nan nan nan nan nan nan nan nan nan nan nan nan nan nan nan nan nan nan nan nan nan nan nan nan nan nan nan nan nan nan nan nan nan nan nan nan nan nan nan nan nan nan nan nan nan nan nan nan nan nan nan nan nan nan nan nan nan nan nan nan nan nan nan nan nan nan nan nan nan nan nan nan nan nan nan nan
nan nan nan nan nan nan nan nan nan nan nan nan nan nan nan nan nan nan nan nan nan nan nan nan nan nan nan nan nan nan nan nan nan nan nan nan nan nan nan nan nan nan nan nan nan nan nan nan nan nan nan nan nan nan nan nan nan nan nan nan nan nan nan nan nan nan nan nan nan nan nan nan nan nan nan nan nan nan nan nan nan nan nan nan nan nan
nan nan nan nan nan nan nan nan nan nan nan nan nan nan nan nan nan nan nan nan nan nan nan nan nan nan nan nan nan nan nan nan nan nan nan nan nan nan nan nan nan nan nan nan nan nan nan nan nan nan nan nan nan nan nan nan nan nan nan nan nan nan nan nan nan nan nan nan nan nan nan nan nan nan nan nan nan nan nan nan nan nan nan nan nan nan
nan nan nan nan nan nan nan nan nan nan nan nan nan nan nan nan nan nan nan nan nan nan nan nan nan nan nan nan nan nan nan nan nan nan nan nan nan nan nan nan nan nan nan nan nan nan nan nan nan nan nan nan nan nan nan nan nan nan nan nan nan nan nan nan nan nan nan nan nan nan nan nan nan nan nan nan nan nan nan nan nan nan nan nan nan nan
nan nan nan nan nan nan nan nan nan nan nan nan nan nan nan nan nan nan nan nan nan nan nan nan nan nan nan nan nan nan nan nan nan nan nan nan nan nan nan nan nan nan nan nan nan nan nan nan nan nan nan nan nan nan nan nan nan nan nan nan nan nan nan nan nan nan nan nan nan nan nan nan nan nan nan nan nan nan nan nan nan nan nan nan nan nan
nan nan nan nan nan nan nan nan nan nan nan nan nan nan nan nan nan nan nan nan nan nan nan nan nan nan nan nan nan nan nan nan nan nan nan nan nan nan nan nan nan nan nan nan nan nan nan nan nan nan nan nan nan nan nan nan nan nan nan nan nan nan nan nan nan nan nan nan nan nan nan nan nan nan nan nan nan nan nan nan nan nan nan nan nan nan
nan nan nan nan nan nan nan nan nan nan nan nan nan nan nan nan nan nan nan nan nan nan nan nan nan nan nan nan nan nan nan nan nan nan nan nan 1 1 nan nan nan nan nan nan nan nan nan nan nan nan nan nan nan nan nan nan nan nan nan nan nan nan nan nan nan nan nan nan nan nan nan nan nan nan nan nan nan nan nan nan nan nan nan nan nan nan
nan nan nan nan nan nan nan nan nan nan nan nan nan nan nan nan nan nan nan nan nan nan nan nan nan nan nan nan nan nan nan nan nan nan nan nan nan nan nan nan nan nan nan nan nan nan nan nan nan nan nan nan nan nan nan nan nan nan nan nan nan nan nan nan nan nan nan nan nan nan nan nan nan nan nan nan nan nan nan nan nan nan nan nan nan nan
nan nan nan nan nan nan nan nan nan nan nan nan nan nan nan nan nan nan nan nan nan nan nan nan nan nan nan nan nan nan nan nan nan nan nan nan nan nan nan nan nan nan nan nan nan nan nan nan nan nan nan nan nan nan nan nan nan nan nan nan nan nan nan nan nan nan nan nan nan nan nan nan nan nan nan nan nan nan nan nan nan nan nan nan nan nan
nan nan nan nan nan nan nan nan nan nan nan nan nan nan nan nan nan nan nan nan nan nan nan nan nan nan nan nan nan nan nan nan nan nan nan nan nan nan nan nan nan nan nan nan nan nan nan nan nan nan nan nan nan nan nan nan nan nan nan nan nan nan nan nan nan nan nan nan nan nan nan nan nan nan nan nan nan nan nan nan nan nan nan nan nan nan
nan nan nan nan nan nan nan nan nan nan nan nan nan nan nan nan nan nan nan nan nan nan nan nan nan nan nan nan nan nan nan nan nan nan nan nan nan nan nan nan nan nan nan 0 0 0 nan nan nan nan nan nan nan nan nan nan nan nan nan nan nan nan nan nan nan nan nan nan nan nan nan nan nan nan nan nan nan nan nan nan nan nan nan nan nan nan
nan nan nan nan nan nan nan nan nan nan nan nan nan nan nan nan nan nan nan nan nan nan nan nan nan nan nan nan nan nan nan nan nan nan nan nan nan nan nan nan nan nan nan nan nan 0 nan 0 0 0 0 nan nan nan nan nan nan nan nan nan nan nan nan nan nan nan nan nan nan nan nan nan nan nan nan nan nan nan nan nan nan nan nan nan nan nan
nan nan nan nan nan nan nan nan nan nan nan nan nan nan nan nan nan nan nan nan nan nan nan nan nan nan nan nan nan nan nan nan nan nan nan nan nan nan nan nan nan nan nan nan nan nan nan nan nan nan 0 5 nan nan nan nan nan nan nan nan nan nan nan nan nan nan nan nan nan nan nan nan nan nan nan nan nan nan nan nan nan nan nan nan nan nan
CIN
nan nan nan nan nan nan nan nan nan nan nan nan nan nan nan nan nan nan nan nan nan nan nan nan nan nan nan -5 -2 -2 -0 nan nan nan nan nan -0 -0 -0 -0 -0 -0 -0 -0 -0 -0 -0 -0 -0 -0 nan nan nan nan nan nan nan nan -0 -0 -0 -0 -0 -0 -0 -0 -0 -0 -0 -0 -0 -0 -0 -0 -0 -0 -0 -0 -0 -0 -0 -0 -0 -0 -0 -0
nan nan nan nan nan nan nan nan nan nan nan nan nan nan nan nan nan nan nan nan nan nan nan nan nan nan nan nan nan nan -0 nan nan nan nan nan -0 -0 -0 -0 -0 -0 -0 -0 -0 -0 -0 -0 -0 -0 nan nan nan nan nan nan nan nan nan nan nan nan -0 -0 -0 -0 -0 -0 -0 -0 -0 -0 -0 -0 -0 -0 -0 -0 -0 -0 -0 -0 -0 -0 -0 -0
nan nan nan nan nan nan nan nan nan nan nan nan nan nan nan nan nan nan nan nan nan nan nan nan nan nan nan nan nan nan -0 -0 nan nan nan -0 -0 -0 -0 -0 -0 -0 -0 -0 -0 -0 -0 -0 -0 nan nan nan nan nan nan nan nan nan nan nan nan nan nan nan nan nan nan nan nan nan nan nan nan nan -0 -0 -0 -0 -0 -0 -0 -0 -0 -0 -0 -0
nan nan nan nan nan nan nan nan nan nan nan nan nan nan nan nan nan nan nan nan nan nan nan nan nan nan nan nan nan nan -0 -0 -0 -0 -0 -0 -0 -0 -0 -0 -0 -0 -0 -0 -0 -0 -0 -0 -0 nan nan nan nan nan nan nan nan nan nan nan nan nan nan nan nan nan nan nan nan nan nan nan nan nan nan -0 -0 -0 -0 -0 -0 -0 -0 -0 -0 -0
nan nan nan nan nan nan nan nan nan nan nan nan nan nan nan nan nan nan nan nan nan nan nan nan nan nan nan nan nan nan -6 -0 -0 -0 -0 -0 -0 -0 -0 -0 -0 -0 -0 -0 -0 -0 -0 -0 -0 nan nan nan nan nan nan nan nan nan nan nan nan nan nan nan nan nan nan nan nan nan nan nan nan nan nan -0 -0 -0 -0 -0 -0 -0 -0 -0 -0 -0
nan nan nan nan nan nan nan nan nan nan nan nan nan nan nan nan nan nan nan nan nan nan nan nan nan nan nan nan nan nan nan -0 -0 -0 -0 -0 -0 -0 -0 -0 -0 -0 -0 -0 -0 -0 -0 -0 -0 nan nan nan nan nan nan nan nan nan nan nan nan nan nan nan nan nan nan nan nan nan nan nan nan nan nan nan -0 -0 -0 -0 -0 -0 -0 -0 -0 -0
nan nan nan nan nan nan nan nan nan nan nan nan nan nan nan nan nan nan nan nan nan nan nan nan nan nan nan nan nan nan nan nan nan nan nan -5 -0 -0 -0 -0 -0 -0 -0 -0 -0 -0 -0 nan nan nan nan nan nan nan nan nan nan nan nan nan nan nan nan nan nan nan nan nan nan nan nan nan nan nan nan nan nan nan -0 -0 -0 -0 -0 -0 -0 -0
nan nan nan nan nan nan -0 -0 -0 -0 nan nan nan nan nan nan nan nan nan nan nan nan nan nan nan nan nan nan nan nan nan nan nan nan nan nan nan nan nan nan nan nan nan nan nan nan nan nan nan nan nan nan nan nan nan nan nan nan nan nan nan nan nan nan nan nan nan nan nan nan nan nan nan nan nan nan nan nan nan nan nan -0 -0 -0 -0 -0
nan nan nan nan nan nan nan -0 nan nan nan nan nan nan nan nan nan nan nan nan nan nan nan nan nan nan nan nan nan nan nan nan nan nan nan nan nan nan nan nan nan nan nan nan nan nan nan nan nan nan nan nan nan nan nan nan nan nan nan nan nan nan nan nan nan nan nan nan nan nan nan nan nan nan nan nan nan nan nan nan nan nan -0 -0 -0 -0
nan nan nan nan nan nan nan nan nan nan nan nan nan nan nan nan nan nan nan nan nan nan nan nan nan nan nan nan nan nan nan nan nan nan nan nan nan nan nan nan nan nan nan nan nan nan nan nan nan nan nan nan nan nan nan nan nan nan nan nan nan nan nan nan nan nan nan nan -0 -0 -0 nan nan nan nan nan nan nan nan nan nan nan nan -0 -0 -0
nan nan nan nan nan nan nan nan nan nan nan nan nan nan nan nan nan nan nan nan nan nan nan nan nan nan nan nan nan nan nan nan nan nan nan nan nan nan nan nan nan nan nan nan nan nan nan nan nan nan nan nan nan nan nan nan nan nan nan nan nan nan nan nan nan nan nan -0 -0 -0 -0 -0 nan nan nan nan nan nan nan nan nan nan nan nan nan -0
nan nan nan nan nan nan nan nan nan nan nan nan nan nan nan nan nan nan nan nan nan nan nan nan nan nan nan nan nan nan nan nan nan nan nan nan nan nan nan nan nan nan nan nan nan nan nan nan nan nan nan nan nan nan nan nan nan nan nan nan nan nan nan nan nan nan nan -0 -0 -0 -0 -0 -0 -0 -0 nan nan nan nan nan nan nan nan nan nan nan
nan nan nan nan nan nan nan nan nan nan nan nan nan nan nan nan nan nan nan nan nan nan nan nan nan nan nan nan nan nan nan nan nan nan nan nan nan nan nan nan nan nan nan nan nan nan nan nan nan nan nan nan nan nan nan nan nan nan nan nan nan nan nan nan nan -0 -0 -0 -0 -0 -0 -0 -0 -0 -0 -0 -0 -0 nan nan nan nan nan nan nan nan
nan nan nan nan nan nan nan nan nan nan nan nan nan nan nan nan nan nan nan nan nan nan nan nan nan nan nan nan nan nan nan nan nan nan nan nan nan nan nan nan nan nan nan nan nan nan nan nan nan nan nan nan nan nan nan nan nan nan nan nan nan nan -0 -0 -0 -0 -0 -0 -0 -0 -0 -0 -0 -0 -0 -0 -0 -0 -0 nan nan nan nan nan nan nan
nan nan nan nan nan nan nan nan nan nan nan nan nan nan nan nan nan nan nan nan nan nan nan nan nan nan nan nan nan nan nan nan nan nan nan nan nan nan nan nan nan nan nan nan nan nan nan nan nan nan nan nan nan nan nan nan nan nan nan -0 -0 -0 -0 -0 -0 -0 -0 -0 -0 -0 -0 -0 -0 -0 -0 -0 -0 -0 -0 -0 -0 -0 nan -0 -0 -0
nan nan nan nan nan nan nan nan nan nan nan nan nan nan nan nan nan nan nan nan nan nan nan nan nan nan nan nan nan nan nan nan nan nan nan nan nan nan nan nan nan nan nan nan nan nan nan nan nan nan nan nan nan nan nan nan nan nan -0 -0 -0 -0 -0 -0 -0 -0 -0 -0 -0 -0 -0 -0 -0 -0 -0 -0 -0 -0 -0 -0 -0 -0 -0 -0 -0 -0
nan nan nan nan nan nan nan nan nan nan nan nan nan nan nan nan nan nan nan nan nan nan nan nan nan nan nan nan nan nan nan nan nan nan nan nan nan nan nan nan nan nan nan nan nan nan nan nan nan nan nan nan nan nan nan nan nan nan -0 -0 -0 -0 -0 -0 -0 -0 -0 -0 -0 -0 -0 -0 -0 -0 -0 -0 -0 -0 -0 -0 -0 -0 -0 -0 -0 -0
nan nan nan nan nan nan nan nan nan nan nan nan nan nan nan nan nan nan nan nan nan nan nan nan nan nan nan nan nan nan nan nan nan nan nan nan nan nan nan nan nan nan nan nan nan nan nan nan nan nan nan nan nan nan nan nan nan nan -0 -0 -0 -0 -0 -0 -0 -0 -0 -0 -0 -0 -0 -0 -0 -0 -0 -0 -0 -0 -0 -0 -0 -0 -0 -0 -0 -0
nan nan nan nan nan nan nan nan nan nan nan nan nan nan nan nan nan nan nan nan nan nan nan nan nan nan nan nan nan nan nan nan nan nan nan nan nan nan nan nan nan nan nan nan nan nan nan nan nan nan nan nan nan nan nan nan nan nan nan -0 -0 -0 -0 -0 -0 nan -0 -0 -0 -0 -0 -0 -0 -0 -0 -0 -0 -0 -0 -0 -0 -0 -0 -0 -0 -0
nan nan nan nan nan nan nan nan nan nan nan nan nan nan nan nan nan nan nan nan nan nan nan nan nan nan nan nan nan nan nan nan nan nan nan nan nan nan nan nan nan nan nan nan nan nan nan nan nan nan nan nan nan nan nan nan nan nan nan nan nan -0 -0 nan nan nan -0 -0 -0 -0 -0 -0 -0 -0 -0 -0 -0 -0 -0 -0 -0 -0 -0 -0 -0 -0
nan nan nan nan nan nan nan nan nan nan nan nan nan nan nan nan nan nan nan nan nan nan nan nan nan nan nan nan nan nan nan nan nan nan nan nan nan nan nan nan nan nan nan nan nan nan nan nan nan nan nan nan nan nan nan nan nan nan nan nan nan nan nan nan nan nan -0 -0 -0 -0 -0 -0 -0 -0 -0 -0 -0 -0 -0 -0 -0 -0 -0 -0 -0 -0
nan nan nan nan nan nan nan nan nan nan nan nan nan nan nan nan nan nan nan nan nan nan nan nan nan nan nan nan nan nan nan nan nan nan nan nan nan nan nan nan nan nan nan nan nan nan nan nan nan nan nan nan nan nan nan nan nan nan nan nan nan nan nan nan nan nan -0 -0 -0 -0 -0 -0 -0 -0 -0 -0 -0 -0 -0 -0 -0 -0 -0 -0 -0 -0
nan nan nan nan nan nan nan nan nan nan nan nan nan nan nan nan nan nan nan nan nan nan nan nan nan nan nan nan nan nan nan nan nan nan nan nan nan nan nan nan nan nan nan nan nan nan nan nan nan nan nan nan nan nan nan nan nan nan nan nan nan nan nan nan nan nan -0 -0 -0 -0 -0 -0 -0 -0 -0 -0 -0 -0 -0 -0 -0 -0 -0 -0 -0 -0
nan nan nan nan nan nan nan nan nan nan nan nan nan nan nan nan nan nan nan nan nan nan nan nan nan nan nan nan nan nan nan nan nan nan nan nan nan nan nan nan nan nan nan nan nan nan nan nan nan nan nan nan nan nan nan nan nan nan nan nan nan nan nan nan nan -0 -0 -0 -0 -0 -0 -0 -0 -0 -0 -0 -0 -0 -0 -0 -0 -0 -0 -0 -0 -0
nan nan nan nan nan nan nan nan nan nan nan nan nan nan nan nan nan nan nan nan nan nan nan nan nan nan nan nan nan nan nan nan nan nan nan nan nan nan nan nan nan nan nan nan nan nan nan nan nan nan nan nan nan nan nan nan nan nan nan nan nan nan nan -0 -0 -0 -0 -0 -0 -0 -0 -0 -0 -0 -0 -0 -0 -0 -0 -0 -0 -0 -0 -0 -0 -0
nan nan nan nan nan nan nan nan nan nan nan nan nan nan nan nan nan nan nan nan nan nan nan nan nan nan nan nan nan nan nan nan nan nan nan nan nan nan nan nan nan nan nan nan nan nan nan nan nan nan nan nan nan nan nan nan nan nan nan nan nan nan nan nan nan -0 -0 -0 -0 -0 -0 -0 -0 -0 -0 -0 -0 -0 -0 -0 -0 -0 -0 -0 -0 -0
nan nan nan nan nan nan nan nan nan nan nan nan nan nan nan nan nan nan nan nan nan nan nan nan nan nan nan nan nan nan nan nan nan nan nan nan nan nan nan nan nan nan nan nan nan nan nan nan nan nan nan nan nan nan nan nan nan nan nan nan nan nan nan nan nan nan nan nan -0 -0 -0 -0 -0 -0 -0 -0 -0 -0 -0 -0 -0 -0 -0 -0 -0 -0
nan nan nan nan nan nan nan nan nan nan nan nan nan nan nan nan nan nan nan nan nan nan nan nan nan nan nan nan nan nan nan nan nan nan nan nan nan nan nan nan nan nan nan nan nan nan nan nan nan nan nan nan nan nan nan nan nan nan nan nan nan nan nan nan nan nan nan nan -0 -0 -0 -0 -0 -0 -0 -0 -0 -0 -0 -0 -0 -0 -0 -0 -0 -22
-0 nan nan nan nan nan nan nan nan nan nan nan nan nan nan nan nan nan nan nan nan nan nan nan nan nan nan nan nan nan nan nan nan nan nan nan nan nan nan nan nan nan nan nan nan nan nan nan nan nan nan nan nan nan nan nan nan nan nan nan nan nan nan nan nan nan nan -0 -0 -0 -0 -0 -0 -0 -0 -0 -0 -0 -0 -0 -0 -0 -0 -20 -20 nan
nan nan nan nan nan nan nan nan -0 -0 -0 nan nan nan nan nan nan nan nan nan nan nan nan nan nan nan nan nan nan nan nan nan nan nan nan nan nan nan nan nan nan nan nan nan nan nan nan nan nan nan nan nan nan nan nan nan nan nan nan nan nan nan nan nan nan nan nan nan nan nan -0 -0 -0 -0 -0 -0 -0 -0 -0 -0 -0 nan -22 nan nan nan
nan nan nan nan nan nan nan nan nan nan -6 -0 -0 -0 nan nan nan nan nan nan nan nan nan nan nan nan nan nan nan nan nan nan nan nan nan nan nan nan nan nan nan nan nan nan nan nan nan nan nan nan nan nan nan nan nan nan nan nan nan nan nan nan nan nan nan nan nan nan nan nan nan nan nan nan nan nan nan nan nan -0 -0 -5 nan nan nan nan
nan nan nan nan nan nan nan nan nan nan nan nan nan nan nan nan nan nan nan nan nan nan nan nan nan nan nan nan nan nan nan nan nan nan nan nan nan nan nan nan nan nan nan nan nan nan nan nan nan nan nan nan nan nan nan nan nan nan nan nan nan nan nan nan nan nan nan nan nan nan nan nan nan nan nan nan nan nan nan -0 -0 -0 nan nan nan nan
nan nan nan nan nan nan nan nan nan nan nan nan nan nan nan nan nan nan nan nan nan nan nan nan nan nan nan nan nan nan nan nan nan nan nan nan nan nan nan nan nan nan nan nan nan nan nan nan nan nan nan nan nan nan nan nan nan nan nan nan nan nan nan nan nan nan nan nan nan nan nan nan nan nan nan nan nan nan -0 -0 -0 -0 -7 nan nan nan
nan nan nan nan nan nan nan nan nan nan nan nan nan nan nan nan nan nan nan nan nan nan nan nan nan nan nan nan nan nan nan nan nan nan -0 nan nan nan nan nan nan nan nan nan nan nan nan nan nan nan nan nan nan nan nan nan nan nan nan nan nan nan nan nan nan nan nan nan nan nan nan nan nan nan nan nan nan nan -0 -0 -0 -0 -0 -24 -24 nan
nan nan nan nan nan nan nan nan nan nan nan nan nan nan nan nan nan nan nan nan nan nan nan nan nan nan nan nan nan nan nan nan nan nan -1 nan nan nan nan nan nan nan nan nan nan nan nan nan nan nan nan nan nan nan nan nan nan nan nan nan nan nan nan nan nan nan nan nan nan nan nan nan nan nan nan nan nan nan -0 -0 -0 -0 -0 -0 -0 -13
nan nan nan nan nan nan nan nan nan nan nan nan nan nan nan nan nan nan nan nan nan nan nan nan nan nan nan nan nan nan nan nan nan nan nan nan nan nan nan nan nan nan nan nan nan nan nan nan nan nan nan nan nan nan nan nan nan nan nan nan nan nan nan nan nan nan nan nan nan nan nan nan nan nan nan nan nan nan nan -0 -0 -0 -0 -0 -0 -3
nan nan nan nan nan nan nan nan nan nan nan nan nan nan nan nan nan nan nan nan nan nan nan nan nan nan nan nan nan nan nan nan nan nan nan nan nan nan nan nan nan nan nan nan nan nan nan nan nan nan nan nan nan nan nan nan nan nan nan nan nan nan nan nan nan nan nan nan nan nan nan nan nan nan nan nan nan nan nan nan nan nan nan nan nan nan
nan nan nan nan nan nan nan nan nan nan nan nan nan nan nan nan nan nan nan nan nan nan nan nan nan nan nan nan nan nan nan nan nan nan nan nan nan nan nan nan nan nan nan nan nan nan nan nan nan nan nan nan nan nan nan nan nan nan nan nan nan nan nan nan nan nan nan nan nan nan nan nan nan nan nan nan nan nan nan nan nan nan nan nan nan nan
nan nan nan nan nan nan nan nan nan nan nan nan nan nan nan nan nan nan nan nan nan nan nan nan nan nan nan nan nan nan nan nan nan nan nan nan nan nan nan nan nan nan nan nan nan nan nan nan nan nan nan nan nan nan nan nan nan nan nan nan nan nan nan nan nan nan nan nan nan nan nan nan nan nan nan nan nan nan nan nan nan nan nan nan nan nan
nan nan nan nan nan nan nan nan nan nan nan nan nan nan nan nan nan nan nan nan nan nan nan nan nan nan nan nan nan nan nan nan nan nan nan nan nan nan nan nan nan nan nan nan nan nan nan nan nan nan nan nan nan nan nan nan nan nan nan nan nan nan nan nan nan nan nan nan nan nan nan nan nan nan nan nan nan nan nan nan nan nan nan nan nan nan
nan nan nan nan nan nan nan nan nan nan nan nan nan nan nan nan nan nan nan nan nan nan nan nan nan nan nan nan nan nan nan nan nan nan nan nan nan nan nan nan nan nan nan nan nan nan nan nan nan nan nan nan nan nan nan nan nan nan nan nan nan nan nan nan nan nan nan nan nan nan nan nan nan nan nan nan nan nan nan nan nan nan nan nan nan nan
nan nan nan nan nan nan nan nan nan nan nan nan nan nan nan nan nan nan nan nan nan nan nan nan nan nan nan nan nan nan nan nan nan nan nan nan nan nan nan nan nan nan nan nan nan nan nan nan nan nan nan nan nan nan nan nan nan nan nan nan nan nan nan nan nan nan nan nan nan nan nan nan nan nan nan nan nan nan nan nan nan nan nan nan nan nan
nan nan nan nan nan nan nan nan nan nan nan nan nan nan nan nan nan nan nan nan nan nan nan nan nan nan nan nan nan nan nan nan nan nan nan nan nan nan nan nan nan nan nan nan nan nan nan nan nan nan nan nan nan nan nan nan nan nan nan nan nan nan nan nan nan nan nan nan nan nan nan nan nan nan nan nan nan nan nan nan nan nan nan nan nan nan
nan nan nan nan nan nan nan nan nan nan nan nan nan nan nan nan nan nan nan nan nan nan nan nan nan nan nan nan nan nan nan nan nan nan nan nan nan nan nan nan nan nan nan nan nan nan nan nan nan nan nan nan nan nan nan nan nan nan nan nan nan nan nan nan nan nan nan nan nan nan nan nan nan nan nan nan nan nan nan nan nan nan nan nan nan nan
nan nan nan nan nan nan nan nan nan nan nan nan nan nan nan nan nan nan nan nan nan nan nan nan nan nan nan nan nan nan nan nan nan nan nan nan -0 -0 nan nan nan nan nan nan nan nan nan nan nan nan nan nan nan nan nan nan nan nan nan nan nan nan nan nan nan nan nan nan nan nan nan nan nan nan nan nan nan nan nan nan nan nan nan nan nan nan
nan nan nan nan nan nan nan nan nan nan nan nan nan nan nan nan nan nan nan nan nan nan nan nan nan nan nan nan nan nan nan nan nan nan nan nan nan nan nan nan nan nan nan nan nan nan nan nan nan nan nan nan nan nan nan nan nan nan nan nan nan nan nan nan nan nan nan nan nan nan nan nan nan nan nan nan nan nan nan nan nan nan nan nan nan nan
nan nan nan nan nan nan nan nan nan nan nan nan nan nan nan nan nan nan nan nan nan nan nan nan nan nan nan nan nan nan nan nan nan nan nan nan nan nan nan nan nan nan nan nan nan nan nan nan nan nan nan nan nan nan nan nan nan nan nan nan nan nan nan nan nan nan nan nan nan nan nan nan nan nan nan nan nan nan nan nan nan nan nan nan nan nan
nan nan nan nan nan nan nan nan nan nan nan nan nan nan nan nan nan nan nan nan nan nan nan nan nan nan nan nan nan nan nan nan nan nan nan nan nan nan nan nan nan nan nan nan nan nan nan nan nan nan nan nan nan nan nan nan nan nan nan nan nan nan nan nan nan nan nan nan nan nan nan nan nan nan nan nan nan nan nan nan nan nan nan nan nan nan
nan nan nan nan nan nan nan nan nan nan nan nan nan nan nan nan nan nan nan nan nan nan nan nan nan nan nan nan nan nan nan nan nan nan nan nan nan nan nan nan nan nan nan -0 -0 -0 nan nan nan nan nan nan nan nan nan nan nan nan nan nan nan nan nan nan nan nan nan nan nan nan nan nan nan nan nan nan nan nan nan nan nan nan nan nan nan nan
nan nan nan nan nan nan nan nan nan nan nan nan nan nan nan nan nan nan nan nan nan nan nan nan nan nan nan nan nan nan nan nan nan nan nan nan nan nan nan nan nan nan nan nan nan -0 nan -0 -0 -0 -0 nan nan nan nan nan nan nan nan nan nan nan nan nan nan nan nan nan nan nan nan nan nan nan nan nan nan nan nan nan nan nan nan nan nan nan
nan nan nan nan nan nan nan nan nan nan nan nan nan nan nan nan nan nan nan nan nan nan nan nan nan nan nan nan nan nan nan nan nan nan nan nan nan nan nan nan nan nan nan nan nan nan nan nan nan nan -0 -0 nan nan nan nan nan nan nan nan nan nan nan nan nan nan nan nan nan nan nan nan nan nan nan nan nan nan nan nan nan nan nan nan nan nan
Wind_Speed
2 3 3 4 4 3 3 3 4 4 3 2 2 2 3 3 3 3 4 4 4 3 3 2 3 3 4 4 4 4 4 4 4 5 5 4 4 4 4 4 4 5 5 6 6 7 8 8 8 8 8 8 9 9 9 9 9 10 10 10 10 10 10 9 9 9 9 9 8 8 8 7 7 7 7 6 6 6 5 5 5 5 5 5 5 5
2 3 3 4 4 3 2 3 3 3 3 3 2 2 3 3 3 3 3 4 4 3 3 2 2 3 4 4 4 4 4 4 4 4 4 4 3 3 3 3 4 4 5 5 6 6 7 7 7 7 8 8 8 8 8 8 9 9 9 9 9 9 9 9 9 9 9 8 8 8 8 8 7 7 7 7 6 6 5 5 5 5 5 5 5 6
3 3 3 3 3 3 2 2 2 2 3 3 3 3 3 3 3 2 2 3 3 3 3 2 2 3 4 4 3 3 3 4 4 4 4 4 3 3 3 3 3 4 4 5 5 6 6 6 6 6 7 7 7 7 7 7 7 8 8 8 8 8 8 8 8 8 8 8 8 8 8 8 8 7 7 7 7 7 6 6 5 5 5 5 6 6
3 3 3 3 2 2 2 2 2 2 2 3 3 3 4 3 3 2 2 2 2 3 3 3 3 3 3 4 3 3 3 4 5 4 4 3 3 3 3 3 4 4 5 5 5 5 6 6 6 6 5 6 6 6 6 6 6 6 6 6 6 7 7 7 7 8 8 8 8 8 8 8 8 7 7 7 7 7 7 6 6 5 5 5 6 6
3 3 3 2 2 2 1 2 2 2 2 3 3 3 3 3 2 2 2 2 2 2 2 3 3 3 3 3 4 3 4 5 5 5 4 4 3 3 3 3 4 4 5 5 5 5 5 5 5 4 4 4 5 5 5 5 5 5 5 5 5 5 6 6 7 7 7 7 8 8 8 8 7 7 7 7 7 7 7 6 6 6 6 6 6 6
2 2 2 2 1 1 1 2 2 2 2 2 2 3 3 2 2 2 2 2 2 2 2 2 3 3 3 3 4 5 5 5 5 5 5 4 4 3 3 3 4 4 4 4 4 4 4 4 3 3 4 4 4 4 4 4 4 4 4 4 4 4 5 5 6 6 7 7 7 7 7 7 7 7 7 7 7 7 7 6 6 6 6 6 6 6
2 1 1 1 1 1 1 1 1 1 1 1 2 2 2 2 2 2 2 2 2 1 1 1 2 3 3 4 5 6 6 6 6 6 6 6 5 4 4 4 4 4 4 4 3 3 3 2 2 3 3 3 4 4 4 4 4 4 3 3 3 4 4 5 5 6 6 7 7 7 7 7 7 7 7 7 7 7 7 6 6 6 6 6 6 6
3 2 1 1 1 1 1 1 1 1 1 1 2 2 2 2 2 2 2 2 2 2 2 2 2 3 3 4 5 5 4 4 5 5 6 6 6 5 5 4 4 3 3 2 2 2 1 2 2 2 3 3 3 4 4 4 4 4 3 3 3 3 4 5 5 6 6 6 6 6 6 6 6 6 6 6 6 6 6 6 6 6 6 6 6 6
4 3 2 2 2 2 1 1 1 1 1 1 2 2 2 2 2 2 2 2 2 2 2 2 2 2 3 3 4 4 4 3 3 3 4 4 4 5 5 6 5 4 3 2 2 2 1 2 2 2 2 3 4 4 4 4 4 4 3 3 3 3 4 4 5 5 6 6 6 6 6 6 6 6 6 6 6 6 6 6 6 6 6 6 6 6
4 4 3 1 1 1 2 1 0 1 1 1 2 2 2 2 2 1 1 1 2 2 2 2 2 2 3 3 4 4 4 4 4 5 6 5 5 5 6 6 6 5 5 4 3 3 2 2 2 2 3 3 4 4 4 4 4 3 3 2 3 3 4 4 5 5 6 6 6 6 5 5 5 5 5 5 5 5 5 5 6 6 6 6 7 6
3 3 3 2 1 1 1 1 1 0 1 2 2 2 2 2 2 2 2 1 1 1 2 2 2 1 2 3 3 4 4 3 4 5 6 6 6 6 7 7 7 7 6 6 5 4 3 2 2 2 3 3 4 4 4 4 3 3 2 2 3 3 4 4 5 5 5 5 5 5 5 5 4 4 4 4 4 4 5 5 5 5 6 6 6 7
3 2 2 2 1 1 1 1 1 0 1 2 2 2 1 1 1 2 3 2 1 0 1 1 1 1 1 2 2 3 3 3 2 3 4 5 5 5 5 5 6 6 6 6 5 5 4 4 3 3 3 3 3 4 3 3 3 3 3 3 3 3 4 4 4 5 5 5 5 5 5 5 4 4 4 4 3 3 4 4 4 4 5 5 6 6
2 2 2 2 2 2 2 1 1 1 1 2 2 2 1 0 1 1 2 2 1 0 0 1 1 1 1 1 1 2 2 2 2 2 2 3 3 4 3 3 3 4 4 4 4 4 4 5 4 4 4 3 3 3 3 3 3 3 3 3 3 3 3 4 4 4 5 5 5 5 5 5 4 4 4 3 3 3 3 3 3 4 4 4 5 6
2 2 2 2 2 2 2 2 2 3 2 2 2 2 2 1 1 1 2 1 1 1 1 1 1 1 2 1 1 1 1 1 1 1 2 2 2 3 2 2 2 2 3 2 2 2 3 4 3 3 4 3 3 3 3 3 3 3 3 3 3 3 3 4 4 4 4 4 4 5 5 5 5 4 4 3 3 3 3 3 3 3 4 4 4 5
3 3 3 3 2 2 2 2 3 3 2 2 1 1 2 1 1 2 2 2 1 1 1 2 2 2 2 1 1 1 1 1 1 1 1 1 2 2 2 2 2 2 2 2 2 2 2 2 2 2 2 2 2 3 3 3 3 3 3 3 3 3 3 3 4 4 4 4 4 5 5 5 4 4 4 3 3 3 3 3 3 4 4 4 4 5
3 3 4 4 3 2 2 2 2 2 2 1 1 2 2 2 1 2 3 2 2 1 2 2 2 2 3 2 1 1 1 1 2 1 1 2 2 2 2 2 2 2 2 1 1 2 2 1 1 1 1 3 4 4 4 3 3 3 3 3 3 3 3 3 3 4 4 4 5 5 5 5 4 4 4 4 3 3 3 3 4 4 4 4 5 5
3 3 3 3 3 2 1 1 2 2 2 2 1 1 2 2 2 2 3 2 2 2 2 2 1 0 2 2 2 1 1 2 2 2 1 2 2 2 2 1 1 1 2 2 2 2 1 1 1 1 2 4 4 4 4 3 3 3 3 3 3 3 3 3 3 3 4 4 5 5 4 4 4 4 4 4 3 3 3 4 4 4 4 5 5 5
2 2 3 3 3 2 2 1 1 1 2 2 2 2 2 1 1 2 2 2 2 2 2 2 2 2 1 1 2 1 1 2 2 2 1 1 2 2 2 1 1 1 1 2 2 2 1 1 1 2 3 4 5 4 4 3 3 3 3 3 3 3 3 3 3 3 4 4 4 4 4 4 4 4 4 4 3 3 3 4 4 4 4 5 5 5
2 2 3 3 3 2 2 2 2 2 3 3 3 2 2 1 1 1 2 2 2 2 3 2 2 2 2 2 2 1 1 1 2 2 1 1 2 2 2 2 1 1 1 2 2 1 1 1 2 4 5 5 5 5 4 4 4 4 3 3 3 2 2 2 2 3 3 3 4 3 3 3 3 3 3 3 3 3 3 4 4 4 4 5 5 5
3 2 3 3 3 2 2 2 3 3 4 4 4 4 3 2 1 2 1 1 1 2 2 2 2 2 2 2 2 1 0 2 3 3 1 1 2 2 2 2 2 1 2 3 2 2 1 1 2 3 5 5 5 5 4 4 4 4 3 3 2 1 1 2 2 2 2 3 3 3 2 2 2 3 3 3 3 4 4 4 4 4 4 5 5 5
3 3 3 3 3 3 3 3 3 4 5 5 4 4 3 2 2 2 1 1 1 1 2 2 2 2 2 2 1 1 1 2 2 2 1 1 2 2 2 1 1 1 2 2 2 2 1 2 2 2 4 5 5 5 5 5 4 4 3 2 1 1 1 1 1 1 2 2 2 2 2 2 2 2 2 3 3 4 4 4 4 4 4 4 4 5
4 4 4 3 3 4 4 4 4 5 5 6 5 4 3 3 3 2 2 2 2 2 2 2 2 2 1 1 1 1 1 1 2 3 2 1 2 2 1 1 1 1 1 2 2 2 2 2 2 2 4 5 5 5 5 5 4 4 2 1 0 0 0 0 0 1 1 1 2 2 2 2 2 2 2 3 3 4 4 5 5 5 4 4 4 4
4 4 4 3 3 2 3 4 4 4 4 4 4 4 3 4 4 4 4 3 3 3 2 1 1 0 0 1 1 1 1 0 1 2 2 0 2 3 1 1 1 1 2 3 2 2 3 2 2 2 4 5 5 5 5 5 4 3 2 1 1 1 0 0 1 1 1 2 2 2 2 2 2 2 3 3 3 4 5 5 5 5 5 5 5 5
3 3 4 3 2 2 2 3 4 3 2 3 3 3 3 3 3 3 3 3 3 3 2 1 1 2 1 1 1 1 1 1 1 2 2 1 2 2 2 1 1 1 2 2 2 2 3 2 2 2 3 5 5 4 4 4 4 3 2 1 1 1 1 1 1 1 2 2 2 2 2 2 3 3 3 3 3 4 4 5 5 5 5 5 5 5
3 3 3 3 3 3 4 4 5 5 4 4 4 4 4 5 5 5 4 3 3 3 3 3 2 2 2 3 2 2 1 1 1 2 2 1 2 2 2 1 1 1 2 2 2 2 2 2 2 2 2 4 5 5 4 4 3 2 1 1 0 1 1 2 2 2 2 2 2 2 3 3 3 3 3 3 3 3 4 4 5 5 5 6 6 6
5 5 5 6 7 7 8 9 9 9 8 6 5 4 5 5 5 4 4 3 3 3 3 3 2 2 2 2 2 2 1 1 1 1 2 1 1 2 2 1 1 1 2 2 2 2 2 2 2 3 3 3 4 5 4 3 1 0 1 1 1 2 2 3 3 3 3 3 3 3 3 3 3 3 3 3 3 3 4 4 4 5 5 5 6 6
10 10 10 10 10 11 11 12 12 12 11 10 8 7 6 5 4 4 3 2 2 3 3 2 1 1 2 2 2 2 2 1 0 1 2 2 0 1 2 1 1 1 2 2 2 1 1 2 2 3 3 3 4 5 5 4 3 3 3 3 3 3 4 4 4 4 3 3 3 3 3 3 3 3 3 3 4 4 4 4 5 5 5 5 4 4
12 12 11 11 11 12 12 12 12 12 12 12 11 10 7 5 4 3 3 2 2 3 3 2 1 0 1 1 2 2 2 1 1 1 2 2 1 1 2 1 1 1 1 2 2 2 1 1 2 2 3 3 3 4 5 6 6 6 6 5 5 4 4 4 4 4 4 4 3 3 3 3 3 3 3 4 4 5 5 5 5 5 4 3 1 1
9 10 10 9 9 9 9 8 9 10 11 12 11 9 6 4 3 4 3 3 3 3 3 2 2 2 1 1 2 2 2 2 1 1 2 2 0 1 1 1 1 1 1 1 2 2 2 2 1 2 2 3 3 3 4 5 5 6 6 6 6 6 5 5 5 5 5 5 4 4 4 4 4 4 4 5 5 5 6 6 6 5 3 1 1 1
6 7 8 8 9 8 7 5 4 5 7 9 9 7 4 3 3 3 4 3 3 3 3 2 2 2 2 0 1 2 2 2 1 1 2 2 1 1 1 1 1 1 1 1 2 2 3 2 2 1 1 2 2 2 3 3 3 4 4 5 6 6 6 6 6 6 6 6 6 5 5 5 5 5 5 5 6 6 6 6 6 4 1 1 1 1
5 5 5 6 6 6 5 5 5 5 4 4 5 5 4 3 3 3 4 4 4 3 3 3 2 2 2 2 1 1 2 2 1 1 3 2 1 1 0 0 1 1 1 1 1 1 2 2 2 2 1 2 2 2 2 2 3 3 3 3 3 4 6 6 6 6 6 6 6 6 6 6 6 6 6 6 6 6 6 7 6 4 0 1 1 1
4 4 3 3 3 3 4 4 4 4 4 5 4 4 4 3 3 3 3 3 3 3 3 3 3 2 2 2 2 2 2 2 2 2 3 2 1 1 1 1 1 1 1 1 2 2 1 2 2 2 2 2 2 2 2 2 2 2 2 2 2 2 4 5 5 5 6 6 6 7 7 7 7 7 6 6 6 6 6 7 6 4 1 1 1 1
3 3 3 3 3 3 3 3 3 3 3 3 3 3 3 3 3 3 3 3 3 4 4 3 3 3 2 2 2 2 2 3 3 3 4 3 2 1 1 1 1 1 1 1 1 2 2 1 2 2 2 2 2 2 2 2 1 1 2 1 1 1 3 3 3 3 4 4 5 5 6 6 7 7 6 6 6 6 6 6 6 5 3 2 2 2
3 3 3 3 3 3 3 3 3 3 2 2 2 2 2 2 2 3 3 3 3 3 4 4 4 3 3 2 1 2 2 3 3 4 4 3 2 1 2 2 2 1 1 1 1 1 0 1 1 2 2 2 2 2 2 1 1 1 1 1 0 1 2 2 2 2 2 3 3 3 4 5 6 6 6 6 6 6 6 6 6 6 5 3 2 2
3 3 3 3 3 3 3 3 3 3 2 1 1 1 2 1 2 2 2 2 2 2 3 3 4 4 4 3 2 2 3 3 4 4 4 3 3 2 2 2 2 2 2 1 1 1 0 1 1 1 1 2 2 2 2 1 1 1 0 0 1 1 1 1 1 1 2 2 2 2 3 3 3 4 5 5 6 5 5 6 6 6 5 4 3 2
3 2 2 2 2 2 2 2 2 2 2 1 1 1 1 1 1 1 2 2 2 2 2 2 2 3 3 4 3 3 3 3 3 4 5 4 3 2 2 2 2 2 2 2 1 1 0 0 1 1 1 1 2 3 2 2 2 1 1 1 1 1 2 1 1 0 1 1 2 2 2 2 2 3 4 5 6 6 6 6 6 5 5 5 4 3
2 1 1 1 1 1 1 0 1 1 1 1 1 0 1 1 1 1 1 1 1 1 1 1 1 1 2 2 3 3 3 2 2 3 4 4 3 3 2 2 2 3 3 3 2 2 1 0 1 1 0 1 2 2 2 2 2 2 2 1 1 1 2 1 1 1 1 1 2 2 2 2 2 3 4 5 6 6 6 6 6 5 5 5 5 5
1 1 0 0 0 1 1 1 1 1 1 1 1 0 0 1 1 1 1 1 1 1 1 1 1 0 1 1 1 2 2 2 2 3 4 3 3 3 3 2 2 2 3 3 3 3 2 1 0 1 1 2 3 3 2 2 2 2 2 2 2 2 2 1 1 1 1 2 2 3 3 2 2 2 3 4 4 4 4 4 4 4 5 5 5 5
1 1 1 1 1 2 2 2 2 2 2 1 1 1 1 1 1 1 1 1 1 1 1 1 1 0 0 0 1 1 1 2 3 3 3 3 3 3 3 2 2 2 2 2 2 3 2 2 2 2 2 2 2 2 2 1 1 2 2 3 3 2 2 1 1 1 2 2 2 3 3 2 1 1 2 2 2 2 2 3 3 3 3 3 4 4
2 2 2 2 2 2 2 2 2 2 1 1 1 1 2 2 2 2 2 2 2 2 1 1 1 1 0 0 1 1 1 1 2 3 3 3 3 3 3 3 3 3 2 2 2 2 3 2 3 3 2 2 2 2 2 2 1 2 2 2 3 2 2 1 2 2 1 1 1 2 2 2 2 2 2 1 1 1 1 2 2 2 1 1 1 2
2 2 2 2 2 2 2 1 1 1 2 2 2 1 1 2 2 2 2 2 2 2 2 2 2 1 1 1 1 1 1 1 2 3 3 3 3 3 3 3 3 3 3 2 2 2 3 3 3 3 3 2 3 3 3 3 3 3 4 3 3 3 3 2 2 1 0 1 1 1 2 2 2 2 2 2 2 2 2 2 2 2 1 1 2 1
3 2 2 2 1 1 1 1 1 2 2 2 2 1 1 1 2 2 2 1 1 2 2 2 2 2 2 3 2 2 1 1 2 3 3 4 4 4 3 3 3 3 3 3 2 2 3 3 3 3 3 3 3 3 4 3 3 3 3 3 3 3 4 4 2 1 0 1 1 1 2 2 2 2 2 3 3 3 3 3 3 4 3 2 2 3
3 2 2 2 2 2 2 2 2 2 2 1 1 1 1 1 1 2 2 2 1 1 1 2 2 2 1 2 3 3 2 2 2 2 3 3 3 3 3 3 3 3 3 3 2 2 2 3 3 4 3 3 3 3 4 4 3 3 3 2 2 1 2 2 2 1 1 1 1 1 2 2 2 2 3 3 3 3 3 3 5 5 4 3 3 3
2 2 2 2 2 2 2 2 2 2 2 2 1 1 1 1 1 2 2 2 2 1 1 1 2 2 1 1 2 3 3 3 2 2 2 3 4 4 3 3 3 3 4 3 3 2 2 3 3 4 3 3 3 3 4 4 3 3 3 3 3 3 2 2 2 1 1 1 1 2 2 2 2 2 2 2 3 2 2 2 3 3 3 2 3 3
2 2 2 2 2 2 2 2 2 2 2 2 2 1 1 1 2 2 2 2 2 2 1 2 2 2 0 1 1 2 3 3 3 2 1 2 4 5 4 4 3 3 3 4 3 3 3 3 3 3 2 3 3 4 5 4 4 3 3 4 4 4 4 3 2 2 2 2 2 2 2 1 0 1 2 2 3 3 3 3 3 3 3 2 2 3
2 2 2 2 2 2 2 2 2 2 1 1 1 1 2 2 2 2 2 2 2 2 1 2 2 1 1 1 1 1 1 2 2 2 2 2 1 2 3 4 4 4 3 4 4 4 3 3 3 2 2 3 4 5 5 4 4 4 4 4 4 4 4 3 3 3 3 3 3 2 1 1 1 0 1 2 3 3 3 3 3 3 3 3 3 3
2 2 2 2 2 2 2 2 2 2 1 1 1 1 2 2 2 2 1 2 2 2 2 2 2 2 2 2 1 1 1 1 2 2 2 2 1 1 0 2 3 4 3 4 4 4 4 4 3 3 3 3 4 5 5 4 4 4 4 3 3 3 3 3 3 3 3 3 2 2 1 1 1 1 2 2 2 3 3 3 3 3 3 3 3 3
3 3 3 2 2 2 2 2 2 2 2 2 2 1 2 2 3 2 1 2 2 2 2 2 1 2 2 2 2 2 2 2 1 1 2 2 1 1 0 0 1 2 3 3 4 4 4 5 5 5 4 4 4 4 4 4 4 4 3 3 3 3 4 3 2 2 2 2 2 2 2 1 1 2 2 2 2 3 3 3 3 3 3 3 3 3
3 3 3 3 3 2 2 2 3 3 3 3 2 1 1 2 3 3 2 2 2 2 2 2 2 2 2 2 2 2 2 2 2 1 1 1 1 1 1 1 0 1 1 2 3 4 4 5 6 7 7 6 6 5 5 4 3 3 3 3 3 3 4 3 3 2 2 2 2 2 2 2 2 2 2 2 2 3 3 3 3 3 3 3 3 4
3 3 3 3 3 3 3 3 3 3 3 3 3 2 1 2 2 2 2 2 2 3 3 3 3 3 3 2 2 2 2 2 1 1 1 1 1 0 0 1 1 1 0 1 2 2 2 3 5 7 9 10 9 7 6 5 4 3 3 3 3 3 3 3 3 2 2 2 2 2 2 2 2 2 2 2 3 3 3 3 3 4 4 3 3 3
4 3 3 3 3 3 3 3 4 4 4 4 3 3 2 2 2 1 2 2 2 3 3 3 3 3 3 3 3 3 3 3 2 2 2 1 1 1 1 1 1 1 0 1 1 1 1 2 2 4 7 11 13 11 7 5 4 3 3 3 3 2 3 3 3 3 3 2 2 2 2 2 2 2 2 2 2 3 3 3 3 3 3 3 2 3
Wind_Direction
132 140 145 146 140 135 140 143 140 135 130 116 103 93 87 81 74 64 57 53 49 49 53 39 25 19 20 28 43 59 69 70 72 73 76 77 77 77 76 77 80 83 86 87 86 84 80 76 71 66 61 56 51 46 42 39 36 34 31 29 27 26 24 21 18 15 13 12 11 11 12 11 8 2 358 356 355 356 360 8 9 7 4 3 0 357
131 134 142 145 139 133 138 148 146 141 137 125 112 99 92 85 77 66 57 46 41 39 41 26 22 22 21 11 29 58 71 75 78 80 82 84 86 87 88 89 91 92 93 92 89 85 81 76 70 64 58 52 46 41 36 33 30 27 25 23 21 20 17 15 12 9 5 4 2 0 359 357 354 351 348 345 343 343 346 353 355 355 352 351 348 343
143 142 149 146 140 135 135 151 147 135 127 118 107 96 92 88 79 67 59 47 39 35 36 24 24 29 27 6 17 53 73 81 84 86 87 92 97 101 103 106 107 106 103 99 94 88 82 75 68 61 54 47 40 34 29 26 23 20 18 17 15 13 11 8 5 2 359 356 353 350 347 345 343 341 339 337 335 335 336 341 343 344 343 341 338 333
150 150 153 141 130 124 126 139 133 114 98 94 86 80 81 85 81 67 58 56 48 40 35 29 32 35 30 6 1 22 76 86 88 88 91 96 102 108 114 117 118 116 113 106 98 90 82 73 64 56 47 38 30 24 18 15 13 11 10 10 9 7 5 1 358 355 351 348 344 341 338 335 333 332 332 330 330 330 331 333 334 333 331 329 326 324
156 152 147 132 116 106 103 116 115 105 87 78 71 68 69 76 76 64 46 50 52 47 35 32 36 39 31 7 356 7 63 84 87 86 88 93 100 108 116 118 119 116 111 103 95 87 78 68 58 46 35 24 15 9 3 0 358 359 0 2 4 3 1 357 353 348 344 340 336 333 330 327 325 324 325 324 324 324 325 326 325 323 321 319 319 319
151 140 129 114 105 101 96 107 113 110 94 75 66 65 68 70 66 55 40 40 43 44 33 33 40 41 34 13 4 11 38 63 70 71 70 73 81 94 106 108 108 105 101 95 88 81 71 59 45 31 18 7 359 354 348 345 345 347 350 357 1 1 357 353 348 343 339 334 330 326 323 320 319 318 318 317 317 317 318 318 317 316 314 313 314 315
134 110 93 85 83 86 87 92 98 106 111 95 77 67 67 66 61 54 45 37 32 25 17 26 39 42 34 17 9 11 24 39 46 48 47 48 52 63 77 86 90 90 90 87 81 72 59 42 26 12 1 354 350 347 343 343 344 347 352 359 2 359 354 348 343 339 334 329 325 321 318 315 313 312 311 311 311 312 312 312 311 310 309 308 309 310
135 117 92 93 93 91 85 70 42 31 85 114 109 94 74 63 56 50 41 37 30 21 10 17 24 27 23 12 7 7 16 29 35 37 37 36 39 44 52 60 65 69 71 70 64 52 30 13 2 356 352 352 352 352 352 353 356 359 3 5 3 356 349 343 339 334 330 325 321 318 314 312 310 308 307 306 307 307 308 308 307 306 305 305 305 305
143 139 126 120 119 119 113 91 25 357 355 94 115 117 109 90 67 47 35 31 28 23 22 28 24 12 359 359 1 4 8 28 44 50 46 42 41 43 46 46 46 44 39 31 20 3 346 344 348 354 357 0 1 1 1 2 4 5 6 3 357 349 342 337 333 330 325 322 319 316 313 310 308 306 305 305 304 305 305 305 305 304 303 303 303 303
142 141 134 118 108 114 120 117 69 346 335 53 87 101 112 113 108 92 66 32 15 13 28 39 34 11 347 349 356 2 4 19 41 52 50 46 49 54 51 46 41 34 26 19 8 356 343 347 356 7 11 9 6 3 1 0 359 357 354 349 342 336 333 331 327 324 321 320 318 317 314 312 309 307 305 304 303 303 303 303 303 303 303 303 302 302
137 133 123 109 86 74 90 103 113 323 347 60 65 64 67 86 114 129 136 127 12 3 18 31 35 23 356 348 351 357 2 9 21 30 32 32 36 41 42 40 37 32 27 22 16 9 1 7 16 21 23 14 6 358 354 348 341 333 325 323 322 323 323 322 321 320 319 319 319 318 316 315 312 308 305 303 302 302 301 303 303 303 304 303 302 301
137 131 119 119 111 97 85 85 73 29 48 77 78 71 41 29 86 131 143 150 146 43 9 7 13 21 15 345 343 348 357 4 4 3 6 14 17 18 21 25 26 25 22 21 19 18 17 24 29 32 33 22 7 353 342 331 319 309 301 303 307 311 314 316 317 317 317 317 318 317 317 315 313 309 304 303 301 301 302 304 304 304 304 303 301 300
125 119 116 119 119 117 118 118 113 106 106 121 136 152 174 178 105 111 120 127 127 99 12 2 356 349 332 337 341 345 349 354 353 354 0 6 6 3 358 5 9 10 9 12 13 14 17 24 29 32 35 26 9 349 332 317 303 295 290 293 297 303 308 311 313 314 314 314 314 314 314 313 312 311 309 309 309 310 311 311 310 308 305 302 300 298
128 120 120 126 127 130 135 143 150 156 163 161 157 154 152 140 116 101 98 86 60 16 27 47 20 343 323 331 345 352 349 352 2 10 16 9 358 351 344 350 352 356 6 7 358 352 2 15 20 22 23 18 5 344 321 305 293 285 281 284 289 295 302 306 310 310 310 310 308 307 308 309 311 313 315 318 321 325 326 325 322 317 312 305 300 297
148 147 147 153 155 153 154 157 159 160 157 146 131 115 101 96 93 96 100 100 83 19 33 44 24 352 325 322 335 4 12 35 42 36 13 346 339 340 342 346 345 351 13 8 337 323 348 7 8 357 353 348 330 307 291 276 271 272 273 277 283 290 296 301 304 306 306 305 303 303 303 306 309 312 316 319 323 326 329 329 326 322 316 309 304 300
156 157 160 162 166 168 170 159 150 141 128 118 117 118 120 121 113 106 108 117 112 77 64 63 38 354 323 318 341 40 45 64 72 67 4 318 324 340 353 359 351 346 352 344 311 300 327 344 345 330 322 306 298 291 285 268 264 267 271 276 281 286 290 295 299 302 303 302 301 300 300 302 306 309 312 313 315 319 322 322 321 318 314 310 308 308
151 155 156 158 165 173 177 141 125 122 123 120 114 111 117 126 125 117 112 116 106 91 90 104 109 94 301 309 325 9 55 82 88 83 36 309 314 334 358 19 3 333 324 310 292 284 306 319 322 311 295 289 288 287 284 277 273 273 275 278 281 284 288 294 300 303 304 302 299 297 296 298 301 304 307 306 307 309 311 312 311 310 307 306 308 310
148 150 149 155 163 169 164 141 127 120 122 120 113 99 82 89 102 110 112 113 112 111 111 118 135 161 189 264 286 307 39 94 96 86 52 304 302 321 356 24 33 333 308 293 284 278 288 290 294 296 295 292 292 291 288 286 284 283 282 282 283 287 294 303 307 309 306 301 297 294 292 294 296 299 301 301 300 299 299 300 300 299 297 298 299 303
158 154 150 156 160 162 161 161 156 150 145 145 136 121 96 86 82 87 95 107 119 127 133 137 153 174 181 214 248 274 55 104 97 86 63 299 296 315 351 9 19 1 305 283 279 278 289 287 294 298 301 298 296 294 294 295 294 291 288 287 290 298 311 320 320 315 308 300 295 292 290 292 296 299 301 301 299 295 292 290 288 287 288 288 290 293
165 169 168 156 148 147 164 184 179 168 159 152 138 125 119 113 94 82 83 95 108 121 130 141 164 189 201 225 252 280 31 88 86 83 78 284 289 307 348 8 15 356 308 282 278 282 299 296 299 302 303 299 298 297 298 299 298 294 291 290 299 320 341 341 334 322 311 303 299 297 296 300 303 307 310 307 305 302 296 292 290 289 287 285 283 283
170 191 200 169 151 150 174 188 185 171 157 139 125 118 122 115 108 104 112 110 109 110 114 140 171 192 194 204 235 278 353 90 94 93 85 301 295 301 338 15 32 11 310 288 286 294 307 304 301 303 306 304 303 302 301 299 296 291 287 289 311 16 21 2 342 324 313 309 306 305 310 307 306 305 305 304 301 299 296 296 297 298 297 293 286 281
171 190 198 181 166 160 167 169 170 165 153 140 136 136 141 138 140 147 156 141 138 142 149 172 189 195 179 198 240 282 332 107 118 119 102 344 303 299 326 12 42 23 288 281 287 304 316 309 302 304 312 314 312 307 302 296 289 283 274 263 164 92 63 22 328 306 299 298 300 303 309 303 299 296 293 292 290 290 290 294 298 303 307 303 298 293
158 167 171 179 177 162 144 142 146 150 146 139 141 148 155 152 155 160 165 158 152 149 154 163 156 111 111 244 277 303 331 88 118 116 106 147 280 284 314 354 23 346 275 276 290 311 321 312 305 307 317 321 318 309 299 288 279 268 249 212 169 155 190 230 257 268 273 282 291 295 300 299 296 292 288 285 284 284 285 290 295 299 302 303 306 306
131 139 148 165 170 153 121 126 128 126 109 98 97 101 104 108 113 119 126 129 128 126 120 100 60 33 12 355 346 348 355 35 85 101 110 175 251 270 305 358 14 322 276 279 298 320 324 316 310 312 322 326 321 312 296 281 267 252 219 199 193 213 246 260 267 269 273 282 289 295 300 300 297 294 291 288 286 286 286 290 292 294 295 295 297 300
111 120 132 147 153 148 132 130 129 126 113 102 97 95 92 91 91 90 89 89 91 90 85 70 49 20 351 348 342 338 343 20 67 101 118 165 251 275 303 2 19 290 277 288 309 332 334 322 318 322 330 332 329 321 300 277 258 235 197 188 216 300 306 306 300 294 290 291 294 296 298 299 298 296 296 295 294 293 291 290 290 288 288 287 287 290
110 119 129 137 139 136 131 130 130 130 126 121 117 114 111 105 99 91 79 73 74 78 77 67 45 357 334 337 327 315 313 358 57 103 125 136 250 290 307 1 27 302 286 298 317 343 351 330 323 325 332 331 330 327 316 296 273 178 105 54 17 357 345 335 325 316 307 302 297 293 291 290 292 295 299 303 304 303 300 296 291 287 284 282 282 285
110 116 122 126 127 127 125 126 127 128 128 128 129 129 124 115 105 97 90 91 91 91 91 93 73 331 334 330 311 296 298 322 41 126 129 117 122 292 299 343 6 331 303 303 311 328 346 330 323 321 323 320 326 335 349 4 29 49 53 41 26 12 0 348 338 329 321 311 301 294 288 286 290 297 306 311 314 313 310 304 298 291 285 281 282 289
109 113 115 118 121 122 122 125 128 131 132 133 135 134 129 116 114 124 153 155 122 99 100 115 133 169 306 292 290 290 295 289 251 182 136 109 116 268 279 326 9 352 314 306 306 315 335 323 312 307 306 308 319 339 360 16 29 39 42 39 32 22 12 1 351 344 337 329 320 311 303 300 302 307 314 318 319 318 314 309 304 298 292 293 313 3
96 103 101 97 96 98 101 112 125 135 138 142 142 140 130 120 127 146 169 154 123 103 106 123 140 155 179 259 291 302 301 284 246 184 135 110 140 260 278 335 14 7 347 334 332 334 338 320 301 293 296 307 322 338 347 4 17 29 34 36 34 30 23 15 7 359 353 346 339 332 324 318 316 316 318 319 319 318 314 310 306 303 305 334 55 73
55 64 62 52 52 55 60 60 81 112 131 143 144 139 123 116 126 139 149 138 123 115 123 132 139 143 143 66 346 326 304 289 257 172 132 126 176 263 298 1 5 3 31 42 18 353 334 319 305 293 295 314 324 332 334 347 358 10 22 30 33 33 30 24 17 8 0 353 345 338 331 325 321 318 317 317 316 314 310 306 303 302 326 76 104 122
41 45 39 31 32 38 47 49 49 52 63 88 99 101 99 101 112 125 134 134 130 127 133 141 146 145 137 114 91 317 289 283 258 161 130 133 163 218 151 59 8 354 13 83 80 26 321 311 309 312 324 327 327 329 332 344 353 0 7 21 28 29 28 23 17 10 2 353 345 337 330 326 321 317 314 312 310 307 304 300 296 292 288 136 141 164
56 54 47 34 32 36 44 48 50 51 51 53 56 62 76 94 111 127 137 140 136 131 132 139 145 148 143 142 158 195 248 260 231 175 134 125 128 145 125 112 74 18 349 84 115 134 193 279 298 313 331 328 326 326 330 343 352 358 8 24 21 12 13 14 12 7 359 351 343 337 331 327 323 319 314 309 304 300 297 294 289 282 255 188 178 199
67 57 45 37 35 36 36 37 42 51 63 66 64 61 67 91 116 133 143 145 140 134 131 136 139 143 143 149 177 213 245 253 224 190 156 127 116 123 119 110 98 66 4 33 84 123 155 225 277 303 316 314 313 313 316 327 343 1 18 33 10 336 341 355 359 356 349 344 339 335 332 331 328 325 319 312 305 298 292 288 283 275 256 206 187 197
67 56 44 37 33 30 26 25 28 34 48 69 82 87 86 101 124 139 149 149 146 142 139 142 145 147 145 152 198 249 266 259 235 205 173 139 126 135 132 131 131 123 86 47 43 53 106 231 277 301 310 309 307 302 296 297 308 338 37 64 342 292 303 331 338 334 328 333 330 325 326 328 329 328 325 319 310 300 292 287 282 277 272 239 205 194
66 55 42 37 34 31 24 19 17 15 15 34 74 102 113 124 138 150 159 160 157 153 148 149 151 153 153 156 174 222 255 253 236 211 179 152 138 136 137 161 161 148 123 114 95 73 4 292 288 303 320 318 314 307 295 287 291 299 281 186 218 246 266 289 307 317 321 323 315 308 310 315 320 322 321 318 313 308 301 296 292 288 287 273 253 219
73 61 43 41 42 43 31 16 5 354 340 339 14 81 110 129 144 156 163 163 164 163 157 152 153 155 156 159 168 187 222 231 217 195 174 155 141 137 144 177 171 152 132 132 132 135 142 299 305 319 335 313 307 304 302 307 319 326 315 276 250 247 249 240 231 261 311 308 299 295 297 302 305 307 308 316 319 320 318 315 310 306 300 291 281 263
90 81 51 48 61 76 73 356 321 298 286 294 317 13 91 118 136 146 146 144 151 158 158 150 150 158 167 163 170 181 199 197 192 183 171 155 142 138 145 167 170 160 147 147 149 146 129 88 342 327 294 246 256 275 295 319 334 339 323 306 289 277 269 249 203 179 217 258 268 274 280 286 293 299 303 316 324 329 329 328 326 324 322 315 305 293
108 122 161 174 159 157 167 217 237 239 236 242 255 265 99 105 104 102 99 103 112 125 138 137 141 167 209 183 178 177 169 156 166 173 168 156 143 135 138 145 165 176 171 159 152 146 136 144 231 277 272 251 249 256 278 310 324 319 305 302 296 287 277 265 230 197 210 240 258 268 274 280 293 304 306 318 328 335 334 330 332 336 342 336 325 312
144 178 217 211 198 188 189 204 213 215 208 198 182 155 129 108 92 81 80 85 86 87 91 103 107 100 351 320 254 206 169 159 165 170 167 163 154 143 139 146 165 185 185 163 150 146 149 169 189 210 234 254 263 268 277 281 281 286 298 311 310 299 278 259 231 216 215 232 259 276 285 296 304 303 297 311 329 338 331 320 321 333 355 351 338 325
170 193 218 211 202 193 194 198 198 189 172 157 137 125 118 109 97 86 82 84 83 79 72 74 75 70 34 337 299 275 233 181 171 170 170 175 172 161 151 160 166 169 164 159 156 159 167 186 200 210 213 229 248 263 270 262 252 261 301 314 311 302 289 262 237 223 213 216 242 266 282 288 286 278 275 278 282 283 280 281 290 303 339 21 358 333
176 197 220 215 204 193 190 177 157 140 132 123 113 105 110 110 104 95 84 73 64 56 50 55 50 33 2 349 325 301 279 218 193 185 181 186 185 180 171 171 167 158 149 159 171 183 187 199 215 227 229 233 247 259 263 258 261 269 282 282 279 277 277 270 261 234 204 228 238 245 262 276 282 282 278 276 264 248 237 238 249 258 259 179 160 159
187 198 208 198 183 167 156 129 120 116 110 102 103 112 134 132 126 117 106 82 50 28 26 44 46 30 356 335 325 318 302 252 221 210 200 194 192 191 188 183 172 158 146 153 174 202 210 212 221 229 231 233 245 258 265 262 262 262 260 263 277 291 295 290 297 344 335 274 259 250 250 266 275 280 281 282 274 263 248 235 239 245 246 206 178 172
197 197 183 156 142 134 132 127 125 121 112 107 119 149 162 146 136 129 124 124 116 82 55 67 74 72 11 320 315 316 315 308 281 246 218 203 199 200 202 195 180 163 151 152 171 204 221 221 226 229 226 219 226 244 264 267 263 253 239 236 250 289 305 297 302 309 277 255 246 241 238 247 256 264 272 274 274 272 267 259 258 259 254 221 196 192
186 168 134 125 125 127 128 132 134 136 137 151 172 183 167 150 137 129 123 130 131 122 102 92 91 92 93 295 297 304 309 314 314 297 246 216 208 205 209 205 192 176 164 165 172 185 199 218 228 229 221 214 223 240 256 261 259 250 237 223 216 216 230 250 266 281 288 267 251 237 230 234 249 270 283 279 277 277 278 272 270 269 259 224 201 201
146 133 122 126 129 133 145 156 154 149 151 170 182 182 160 158 151 142 134 134 132 129 129 121 106 96 95 258 279 295 307 315 320 321 306 243 222 214 207 203 198 192 187 192 192 191 191 211 221 221 207 208 223 237 249 254 256 254 247 235 231 231 232 238 245 256 270 275 270 260 236 214 232 305 299 289 284 280 275 275 277 276 270 246 218 211
136 140 143 142 147 157 175 167 155 145 155 189 198 184 152 151 149 149 144 138 135 135 143 133 130 139 199 231 255 284 308 317 322 327 330 321 284 236 210 205 201 200 203 212 214 212 210 212 207 196 186 210 227 234 237 240 246 252 253 246 245 247 251 251 249 248 251 262 266 264 231 121 109 245 273 279 282 281 275 266 264 266 270 265 250 235
163 167 170 165 166 172 177 158 149 151 178 211 211 186 147 139 140 144 147 143 138 135 133 128 140 165 195 204 203 199 227 280 299 309 317 322 324 320 220 217 212 209 208 217 223 227 232 229 221 212 208 225 235 238 233 226 230 238 245 244 245 249 254 253 246 237 229 241 247 243 155 116 125 230 253 270 280 284 282 274 263 257 258 259 257 252
188 189 188 181 178 178 178 166 164 173 199 216 214 187 153 155 160 163 157 158 150 142 137 138 159 187 207 211 206 200 204 221 239 258 281 293 299 309 31 82 211 216 218 223 229 234 239 238 234 229 225 229 238 244 241 225 221 225 233 235 241 249 257 256 247 229 217 228 224 205 165 173 202 229 252 275 284 286 286 284 278 268 256 250 249 249
197 198 196 189 189 193 196 185 183 189 206 216 215 197 164 178 183 181 164 160 157 157 160 171 184 200 218 224 223 220 223 228 228 230 239 258 273 297 356 49 112 173 209 226 231 235 240 239 234 229 225 225 233 242 248 236 226 221 226 230 237 246 257 260 254 237 221 222 213 198 180 195 202 203 205 255 274 279 282 285 282 275 262 250 242 240
199 199 196 192 196 203 205 196 194 199 210 216 215 205 178 183 189 185 162 156 163 173 184 190 196 205 221 227 226 224 223 226 230 235 240 239 240 244 9 79 94 114 197 235 236 237 242 243 236 228 222 220 222 229 240 239 234 227 227 230 233 239 250 256 255 245 229 222 209 194 189 204 200 187 177 227 260 271 277 278 277 275 270 262 250 243
201 199 196 197 202 208 208 202 202 205 212 216 214 207 186 176 175 175 164 169 180 192 201 201 202 209 223 228 228 224 218 216 223 231 236 227 209 184 168 137 125 120 126 260 256 252 254 262 256 240 227 219 216 216 224 228 229 229 232 231 227 226 236 245 249 249 244 230 207 188 186 201 203 195 184 212 252 271 275 272 271 271 273 274 266 256